Location: Zagreb
(45.8000°N, 16.0000°E)
Time: 15:30:18
(UTC+02:00)

Tiros 1 despin weight - Pass Details

Date: 11 August 2022
Orbit: 590 x 639 km, 48.2° (Epoch: 23 September)

Event Time Altitude Azimuth Distance (km) Brightness Sun altitude
Rises 13:06:03 0° 223° (SW) 2,850 ? 59.4°
Reaches altitude 10° 13:08:28 10° 216° (SW) 1,941 ? 59.4°
Maximum altitude 13:12:36 39° 148° (SSE) 901 ? 59.3°
Drops below altitude 10° 13:16:43 10° 79° (E) 1,927 ? 59.2°
Sets 13:19:05 0° 72° (ENE) 2,827 ? 59.2°
